Regional Weather Roundup
Issued by NWS

Home | Current Version | Previous Version | Graphics & Text | Print | Product List | Glossary On
Versions: 1 2 3 4 5 6 7 8 9 10 11 12 13 14 15 16 17 18 19 20 21 22 23 24 25 26 27
000
ASUS45 KBOU 241807
RWRCO

WEATHER ROUNDUP FOR COLORADO
NATIONAL WEATHER SERVICE DENVER/BOULDER CO
1200 PM MDT SAT JUN 24 2017

NOTE: "FAIR" INDICATES FEW OR NO CLOUDS BELOW 12000 FEET WITH NO
SIGNIFICANT WEATHER AND/OR OBSTRUCTIONS TO VISIBILITY.

COZ001>005-013-030-031-241900-
...NORTHWEST COLORADO...

CITY           SKY/WX    TMP DP  RH WIND       PRES   REMARKS
CRAIG          FAIR      73  22  14 VRB6      30.33F
HAYDEN         FAIR      66  34  30 NW3       30.35S
MEEKER         FAIR      74  29  19 NE14G22   30.33S
RABBIT EARS PA FAIR      54  32  43 W7        30.56S
STEAMBOAT SPGS FAIR      66  36  33 SW3       30.36S
WALDEN         FAIR      64  30  27 NW10G16   30.42S
$$

COZ006>008-011-241900-
...WEST CENTRAL VALLEYS...

CITY           SKY/WX    TMP DP  RH WIND       PRES   REMARKS
GRAND JUNCTION FAIR      85  29  13 W7        30.16F
MONTROSE       FAIR      80  28  15 N6        30.23F
EAGLE          SUNNY     73  28  19 CALM      30.30F
RIFLE          FAIR      82  27  13 NW5       30.23F
DELTA          FAIR      84  26  12 CALM      30.19F
NUCLA          FAIR      84  21  10 N8        30.27F
$$

COZ017>023-064>068-241900-
...SOUTHWEST COLORADO...

CITY           SKY/WX    TMP DP  RH WIND       PRES   REMARKS
DURANGO        FAIR      79  41  25 W8        30.27F
CORTEZ         FAIR      84  22  10 VRB6      30.22F
PAGOSA SPRINGS FAIR      73  39  28 S5        30.35F
TELLURIDE      FAIR      73  15  11 W8        30.47S
WOLF CREEK PAS FAIR      55  39  54 SW12G21   30.68F
$$

COZ009-010-012-014-032>034-037-058>063-241900-
...CENTRAL COLORADO...

CITY           SKY/WX    TMP DP  RH WIND       PRES   REMARKS
ASPEN          FAIR      75  24  15 MISG      30.35S
BUENA VISTA    FAIR      71  32  24 S7        30.34F
COPPER MTN     FAIR      59  18  20 NW13G26   30.64R
BERTHOUD PASS  FAIR      46  34  61 NW24G38   30.65S
COTTONWOOD PAS FAIR      68  28  22 E8        30.47F
GUNNISON       FAIR      72  30  21 SW6       30.34
KREMMLING      NOT AVBL
LEADVILLE      FAIR      66   9  10 NW14G26   30.47R
MONARCH PASS   FAIR      57  19  23 W21G31    30.74R
SALIDA         FAIR      75  43  31 SE14G20   30.38F
SUNLIGHT       FAIR      55  27  33 SW9G20    30.60S
WILKERSON PASS FAIR      59  21  23 S7        30.61S
$$

COZ069>075-241900-
...SAN LUIS VALLEY/SANGRE DE CRISTO MOUNTAINS...

CITY           SKY/WX    TMP DP  RH WIND       PRES   REMARKS
ALAMOSA        FAIR      73  48  41 VRB5      30.32F
DEL NORTE      FAIR      70  44  40 E10G17    30.35F
LA VETA PASS   HAZE      54  48  82 CALM      30.62F VSB 3/4
SAGUACHE       FAIR      72  39  30 S9        30.34F
$$

COZ035-036-038>040-241900-
...NORTHERN COLORADO FRONT RANGE...

CITY           SKY/WX    TMP DP  RH WIND       PRES   REMARKS
DENVER INTL AP PTSUNNY   69  47  45 VRB3      30.33S
DMNS CITY PARK   N/A     65  48  52 N14       30.33S
AURORA         PTSUNNY   65  49  55 N5        30.34S
FRONT RANGE AP CLOUDY    68  48  49 NE6       30.33S
ERIE MUNI ARPT CLOUDY    66  48  52 CALM      30.33S
BOULDER MUN AP CLOUDY    64  46  52 N5        30.34S
CENTENNIAL     PTSUNNY   66  49  54 VRB6      30.34S
BROOMFIELD     PTSUNNY   64  48  55 NW6       30.36S
FORT COLLINS   FAIR      69  45  41 VRB6      30.34S
LONGMONT       PTSUNNY   71  47  41 NW3       30.34F
$$

COZ041-046-047-076>085-087-088-241900-
...PIKES PEAK/PALMER DIVIDE AND SOUTHERN FOOTHILLS...

CITY           SKY/WX    TMP DP  RH WIND       PRES   REMARKS
COLO. SPRINGS  PTSUNNY   65  46  50 SE14G23   30.35F
A. F. ACADEMY  PTSUNNY   65  45  48 SE8G20    30.35S
SCHRIEVER AFB  PTSUNNY   65  44  45 SE13G23   30.36F
CHEYENNE MTN   CLOUDY    59  45  61 SE12      30.33S
ELLICOTT       PTSUNNY  N/A N/A N/A SE17G23   30.34F
FALCON           N/A     65  42  43 S14G22    30.40R
FORT CARSON    CLOUDY    67  46  46 SE8       30.33S
LIMON          CLOUDY    64  47  53 SE14      30.35R
MONUMENT HILL  CLOUDY    63  45  51 S12G17    30.40R
CANON CITY     MOSUNNY   72  48  43 E8G17     30.30S
WALSENBURG     CLOUDY    72  52  49 SE7       30.32S
TRINIDAD       CLOUDY    67  48  50 VRB5      30.31F
$$

COZ042>045-048>051-090-091-241900-
...NORTHEAST COLORADO...

CITY           SKY/WX    TMP DP  RH WIND       PRES   REMARKS
GREELEY ARPT   FAIR      69  47  45 E5        30.33S
AKRON          CLOUDY    66  43  43 SE10      30.33R
BURLINGTON     CLOUDY    70  48  45 SE12      30.31F
WRAY           PTSUNNY   70  45  40 S8G17     30.31S
YUMA           CLOUDY    63  46  55 SE7       30.32S
STERLING       CLOUDY    68  41  37 E7        30.30S
HOLYOKE        NOT AVBL
FORT MORGAN    CLOUDY    69  43  38 E10       30.32S
$$

COZ086-089-092>099-241900-
...SOUTHEAST COLORADO...

CITY           SKY/WX    TMP DP  RH WIND       PRES   REMARKS
PUEBLO         FAIR      72  49  44 SE13G20   30.28F
LA JUNTA       CLOUDY    72  46  39 S17       30.28S
LAMAR          CLOUDY    73  44  35 S16       30.27S
SPRINGFIELD      N/A     70  46  42 S15G25    30.31F
$$




USA.gov is the U.S. government's official web portal to all federal, state and local government web resources and services.